When you browse on this site, cookies collect data to enhance your experience and personalize the content and advertising you see.
Visit our Privacy Policy to learn more. By continuing to use the site, you agree to this use of cookies and data.
  • In Hungary
  • List of Countries
  • For 7 days
  • Water Temperature
  • Weather Map
  • News
  • Weather Widgets
  • user-avatar
    Login

    Hourly Weather Kushalino

    Today, 19 January, Sunday

    Time Temperature Precipitation Wind Pressure Humidity
    00:00 -2°C° 0 mm 3 mps 751 mmHg 86%
    01:00 -2°C° 0 mm 3 mps 752 mmHg 86%
    02:00 -2°C° 0 mm 3 mps 752 mmHg 92%
    03:00 -2°C° 0 mm 3 mps 752 mmHg 93%
    04:00 -4°C° 0 mm 3 mps 752 mmHg 93%
    05:00 -3°C° 0 mm 2 mps 753 mmHg 94%
    06:00 -4°C° 0 mm 3 mps 753 mmHg 93%
    07:00 -2°C° 0 mm 3 mps 753 mmHg 92%
    08:00 -2°C° 0 mm 3 mps 754 mmHg 90%
    09:00 -1°C° 0 mm 3 mps 754 mmHg 89%
    10:00 -1°C° 0 mm 3 mps 754 mmHg 88%
    11:00 0°C° 0 mm 3 mps 754 mmHg 87%
    12:00 0°C° 0 mm 3 mps 754 mmHg 86%
    13:00 -1°C° 0 mm 4 mps 754 mmHg 86%
    14:00 -1°C° 0 mm 4 mps 755 mmHg 85%
    15:00 -1°C° 0 mm 4 mps 755 mmHg 85%
    16:00 -1°C° 0 mm 4 mps 755 mmHg 85%
    17:00 -1°C° 0 mm 4 mps 755 mmHg 84%
    18:00 -1°C° 0 mm 4 mps 755 mmHg 85%
    19:00 -1°C° 0 mm 4 mps 755 mmHg 87%
    20:00 -1°C° 0 mm 4 mps 755 mmHg 88%
    21:00 -1°C° 0 mm 4 mps 754 mmHg 89%
    22:00 -1°C° 0 mm 4 mps 754 mmHg 91%
    23:00 -1°C° 0 mm 4 mps 754 mmHg 92%

    Tomorrow, 20 January, Monday

    Time Temperature Precipitation Wind Pressure Humidity
    00:00 -1°C° 0 mm 4 mps 754 mmHg 91%
    01:00 0°C° 0 mm 4 mps 754 mmHg 89%
    02:00 0°C° 0 mm 4 mps 754 mmHg 88%
    03:00 0°C° 0 mm 4 mps 754 mmHg 88%
    04:00 0°C° 0 mm 5 mps 754 mmHg 89%
    05:00 0°C° 0 mm 5 mps 754 mmHg 89%
    06:00 0°C° 0 mm 5 mps 754 mmHg 91%
    07:00 0°C° 0 mm 5 mps 754 mmHg 93%
    08:00 -1°C° 0 mm 4 mps 754 mmHg 95%
    09:00 0°C° 0 mm 5 mps 754 mmHg 94%
    10:00 0°C° 0 mm 5 mps 754 mmHg 93%
    11:00 0°C° 0 mm 5 mps 754 mmHg 92%
    12:00 0°C° 0 mm 5 mps 754 mmHg 92%
    13:00 0°C° 0 mm 5 mps 754 mmHg 92%
    14:00 0°C° 0 mm 5 mps 754 mmHg 92%
    15:00 -1°C° 0 mm 5 mps 753 mmHg 93%
    16:00 -1°C° 0 mm 4 mps 753 mmHg 94%
    17:00 -1°C° 0 mm 4 mps 753 mmHg 95%
    18:00 -1°C° 0 mm 5 mps 752 mmHg 92%
    19:00 -1°C° 0 mm 5 mps 752 mmHg 88%
    20:00 -1°C° 0 mm 5 mps 752 mmHg 84%
    21:00 -1°C° 0 mm 5 mps 751 mmHg 83%
    22:00 -1°C° 0 mm 4 mps 751 mmHg 81%
    23:00 -1°C° 0 mm 4 mps 750 mmHg 80%

    Day after tomorrow, 21 January, Tuesday

    Time Temperature Precipitation Wind Pressure Humidity
    00:00 -2°C° 0 mm 4 mps 749 mmHg 81%
    01:00 -2°C° 0 mm 5 mps 749 mmHg 83%
    02:00 -2°C° 0 mm 5 mps 748 mmHg 84%
    03:00 -1°C° 0.3 mm 5 mps 747 mmHg 86%
    04:00 -1°C° 0.3 mm 5 mps 746 mmHg 88%
    05:00 -2°C° 0.3 mm 6 mps 745 mmHg 90%
    06:00 -2°C° 0.4 mm 6 mps 744 mmHg 89%
    07:00 -1°C° 0.4 mm 6 mps 744 mmHg 89%
    08:00 -1°C° 0.4 mm 6 mps 743 mmHg 88%
    09:00 +1°C° 0 mm 6 mps 742 mmHg 89%
    10:00 +1°C° 0 mm 6 mps 742 mmHg 89%
    11:00 +2°C° 0 mm 5 mps 741 mmHg 89%
    12:00 +2°C° 0.1 mm 5 mps 741 mmHg 89%
    13:00 +3°C° 0.1 mm 5 mps 741 mmHg 89%
    14:00 +3°C° 0.1 mm 5 mps 740 mmHg 89%
    15:00 +3°C° 0.2 mm 5 mps 739 mmHg 90%
    16:00 +3°C° 0.2 mm 5 mps 739 mmHg 91%
    17:00 +3°C° 0.2 mm 4 mps 738 mmHg 93%
    18:00 +3°C° 0.9 mm 4 mps 737 mmHg 93%
    19:00 +3°C° 0.9 mm 4 mps 737 mmHg 94%
    20:00 +3°C° 0.9 mm 4 mps 737 mmHg 95%
    21:00 +1°C° 0.6 mm 4 mps 737 mmHg 93%
    22:00 0°C° 0.6 mm 5 mps 737 mmHg 90%
    23:00 0°C° 0.6 mm 5 mps 737 mmHg 87%

    22 January, Wednesday

    Time Temperature Precipitation Wind Pressure Humidity
    00:00 -1°C° 0.1 mm 5 mps 737 mmHg 85%
    01:00 -1°C° 0.1 mm 5 mps 738 mmHg 82%
    02:00 -2°C° 0.1 mm 5 mps 738 mmHg 80%
    03:00 -2°C° 0 mm 5 mps 737 mmHg 79%
    04:00 -2°C° 0 mm 5 mps 737 mmHg 78%
    05:00 -4°C° 0 mm 5 mps 737 mmHg 78%
    06:00 -4°C° 0 mm 5 mps 736 mmHg 78%
    07:00 -4°C° 0 mm 5 mps 736 mmHg 78%
    08:00 -4°C° 0 mm 5 mps 736 mmHg 78%
    09:00 -3°C° 0.1 mm 6 mps 735 mmHg 78%
    10:00 -3°C° 0.1 mm 6 mps 735 mmHg 79%
    11:00 -3°C° 0.1 mm 6 mps 735 mmHg 79%
    12:00 -3°C° 0.2 mm 6 mps 735 mmHg 78%
    13:00 -2°C° 0.2 mm 5 mps 734 mmHg 77%
    14:00 -2°C° 0.2 mm 4 mps 734 mmHg 76%
    15:00 -3°C° 0 mm 4 mps 734 mmHg 76%
    16:00 -3°C° 0 mm 4 mps 735 mmHg 77%
    17:00 -4°C° 0 mm 4 mps 735 mmHg 77%
    18:00 -4°C° 0 mm 4 mps 735 mmHg 78%
    19:00 -4°C° 0 mm 4 mps 736 mmHg 79%
    20:00 -4°C° 0 mm 4 mps 736 mmHg 79%
    21:00 -4°C° 0 mm 4 mps 736 mmHg 81%
    22:00 -6°C° 0 mm 5 mps 737 mmHg 83%
    23:00 -6°C° 0 mm 5 mps 737 mmHg 84%

    23 January, Thursday

    Time Temperature Precipitation Wind Pressure Humidity
    00:00 -6°C° 0.1 mm 5 mps 738 mmHg 78%
    01:00 -6°C° 0.1 mm 6 mps 738 mmHg 72%
    02:00 -8°C° 0.1 mm 6 mps 739 mmHg 65%
    03:00 -8°C° 0 mm 6 mps 739 mmHg 64%
    04:00 -9°C° 0 mm 6 mps 740 mmHg 63%
    05:00 -9°C° 0 mm 6 mps 740 mmHg 62%
    06:00 -9°C° 0 mm 6 mps 741 mmHg 61%
    07:00 -8°C° 0 mm 5 mps 741 mmHg 61%
    08:00 -8°C° 0 mm 5 mps 741 mmHg 60%
    09:00 -9°C° 0.1 mm 6 mps 742 mmHg 60%
    10:00 -8°C° 0.1 mm 6 mps 742 mmHg 60%
    11:00 -8°C° 0.1 mm 7 mps 743 mmHg 61%
    12:00 -8°C° 0 mm 7 mps 743 mmHg 58%
    13:00 -8°C° 0 mm 6 mps 743 mmHg 55%
    14:00 -8°C° 0 mm 6 mps 744 mmHg 52%
    15:00 -7°C° 0 mm 5 mps 744 mmHg 55%
    16:00 -8°C° 0 mm 5 mps 745 mmHg 58%
    17:00 -8°C° 0 mm 4 mps 746 mmHg 61%
    18:00 -8°C° 0 mm 4 mps 746 mmHg 63%
    19:00 -9°C° 0 mm 4 mps 746 mmHg 65%
    20:00 -8°C° 0 mm 3 mps 746 mmHg 68%
    21:00 -8°C° 0 mm 3 mps 746 mmHg 68%
    22:00 -8°C° 0 mm 3 mps 746 mmHg 68%
    23:00 -9°C° 0 mm 3 mps 746 mmHg 68%

    24 January, Friday

    Time Temperature Precipitation Wind Pressure Humidity
    00:00 -8°C° 0 mm 3 mps 746 mmHg 68%
    01:00 -8°C° 0 mm 3 mps 745 mmHg 68%
    02:00 -7°C° 0 mm 3 mps 744 mmHg 68%
    03:00 -7°C° 0.2 mm 3 mps 743 mmHg 77%
    04:00 -8°C° 0.2 mm 4 mps 742 mmHg 85%
    05:00 -7°C° 0.2 mm 4 mps 741 mmHg 93%
    06:00 -7°C° 0.5 mm 4 mps 740 mmHg 93%
    07:00 -6°C° 0.5 mm 5 mps 739 mmHg 94%
    08:00 -5°C° 0.5 mm 5 mps 738 mmHg 94%
    09:00 -4°C° 0.1 mm 5 mps 737 mmHg 92%
    10:00 -2°C° 0.1 mm 4 mps 737 mmHg 90%
    11:00 -1°C° 0.1 mm 4 mps 736 mmHg 88%
    12:00 0°C° 0.1 mm 5 mps 736 mmHg 84%
    13:00 0°C° 0.1 mm 5 mps 736 mmHg 81%
    14:00 -1°C° 0.1 mm 6 mps 736 mmHg 77%
    15:00 -2°C° 0 mm 6 mps 736 mmHg 76%
    16:00 -2°C° 0 mm 6 mps 737 mmHg 76%
    17:00 -3°C° 0 mm 6 mps 738 mmHg 75%
    18:00 -4°C° 0 mm 6 mps 738 mmHg 74%
    19:00 -4°C° 0 mm 5 mps 739 mmHg 73%
    20:00 -4°C° 0 mm 5 mps 739 mmHg 72%
    21:00 -4°C° 0 mm 5 mps 739 mmHg 74%
    22:00 -5°C° 0 mm 5 mps 740 mmHg 76%
    23:00 -5°C° 0 mm 5 mps 740 mmHg 78%
    Show more